Overview Statistics Trail Chart Weather Telemetry Raw packets
 

This is the latest recevied weather packets stored in our database for station/object JA7ZQY-10. If no packets are shown the sender has not sent any weather packets the latest 10 day(s).

<< 47 48 49 50 51 52 53 >>
Time Temp. Humidity Pressure Rain* Wind** Luminosity Snow
1787853968 21.67° C 90% 1006.3 hPa 0 mm - - -
1787853368 21.11° C 91% 1005.9 hPa 0 mm - - -
1787852769 21.11° C 92% 1006.2 hPa 0 mm - - -
1787852168 21.11° C 94% 1006 hPa 0 mm - - -
1787851569 21.11° C 94% 1006 hPa 0 mm - - -
1787850968 21.67° C 94% 1005.8 hPa 0 mm - - -
1787850369 21.67° C 93% 1005.6 hPa 0 mm - - -
1787849768 21.67° C 92% 1005.8 hPa 0 mm - - -
1787849169 22.22° C 92% 1005.8 hPa 0 mm - - -
1787848569 22.22° C 93% 1005.7 hPa 0 mm - - -
1787847968 21.67° C 94% 1005.3 hPa 0 mm - - -
1787847368 21.67° C 94% 1005.3 hPa 0 mm - - -
1787846769 21.67° C 94% 1005.5 hPa 0.25 mm - - -
1787846169 21.67° C 94% 1005.7 hPa 1.02 mm - - -
1787845568 21.67° C 94% 1005.6 hPa 1.02 mm - - -
1787844969 21.67° C 95% 1005.5 hPa 1.27 mm - - -
1787844368 21.67° C 95% 1005.8 hPa 1.78 mm - - -
1787843768 21.67° C 93% 1006.1 hPa 1.78 mm - - -
1787843171 21.67° C 92% 1006.1 hPa 1.78 mm - - -
1787842569 21.67° C 90% 1006.1 hPa 0.76 mm - - -
1787841968 21.67° C 89% 1006.4 hPa 0.76 mm - - -
1787841368 22.22° C 85% 1006.3 hPa 0.51 mm - - -
1787840769 22.22° C 84% 1006.1 hPa 0.25 mm - - -
1787840169 22.78° C 79% 1006.1 hPa 0.25 mm - - -
1787839568 22.78° C 78% 1006.4 hPa 0 mm - - -

* Rain latest hour (hover to see other rain measurements)
** Current wind speed in m/s (hover to see current wind gust speed)